Location: *
(46.2333°N, 3.4300°E)
Time: 05:49:40
(UTC+00:00)

Daily predictions for brighter satellites

Satellite Brightness Start Highest point End
(mag) Time Altitude Azimuth Time Altitude Azimuth Time Altitude Azimuth
Cosmos 2082 Rocket 4.3 00:29:17 10° NNW 00:31:30 22° N 00:31:30 22° N
ADEOS II 4.5 01:06:57 10° NE 01:09:24 16° E 01:09:24 16° E
Cosmos 2278 Rocket 3.7 01:19:20 32° NNE 01:19:20 32° NNE 01:22:20 10° NNE
Resurs 1-4 Rocket 3.8 01:16:25 10° NNE 01:19:07 30° NE 01:19:07 30° NE
SL-16 R/B 3.6 01:35:39 37° NNW 01:35:39 37° NNW 01:39:12 10° NNW
USA 267 4.5 01:27:23 10° ENE 01:33:11 35° N 01:35:17 29° NW
Lacrosse 5 rocket 4.4 01:42:56 12° ENE 01:42:56 12° ENE 01:43:23 10° E
Cosmos 1943 Rocket 4.1 01:44:51 20° E 01:44:51 20° E 01:48:49 10° NE
CENTAUR R/B 4.4 01:44:44 18° ESE 01:45:31 18° ESE 01:49:42 10° ENE
CZ-2D R/B 3.3 01:48:36 10° NNE 01:51:46 37° N 01:51:46 37° N
ATLAS 5 CENTAUR R/B 3.7 01:56:06 25° N 01:56:06 25° N 01:58:42 10° NNE
USA 238 DEB 3.9 02:00:34 60° ESE 02:00:34 60° ESE 02:07:03 10° NE
USA 238 3.9 02:00:39 60° ESE 02:00:39 60° ESE 02:07:10 10° NE
ARIANE 5 R/B 3.4 02:03:11 10° NNE 02:07:24 45° ENE 02:07:24 45° ENE
Lacrosse 5 3.8 02:11:30 22° NNW 02:12:52 25° N 02:17:01 10° ENE
Cosmos 2297 4.0 02:24:39 58° NNW 02:24:39 58° NNW 02:29:28 10° NNE
Cosmos 1125 Rocket 4.3 02:23:02 10° NNW 02:28:14 50° ENE 02:33:23 10° SE
CZ-4B R/B 4.4 02:31:18 13° N 02:31:18 13° N 02:31:42 10° N
Cosmos 1814 Rocket 4.4 02:30:30 56° N 02:30:30 56° N 02:34:40 10° NNE
NOSS 3-3 (A) 4.4 02:24:50 10° NW 02:32:21 89° NE 02:40:37 10° SE
NOSS 3-3 (C) 4.4 02:24:56 10° NW 02:32:27 89° NE 02:40:44 10° SE
Atlas Centaur 2 4.3 02:36:05 19° SSE 02:36:05 19° SSE 02:39:44 10° SE
Cosmos 2369 Rocket 2.8 02:36:43 43° SE 02:37:47 49° ESE 02:43:15 10° NE
Cosmos 2228 Rocket 4.0 02:41:16 42° N 02:41:16 42° N 02:44:20 10° N
NOSS 3-2 (A) 3.2 02:44:44 75° SW 02:45:19 89° NW 02:51:56 10° NE
NOSS 3-2 (C) 3.5 02:46:55 56° S 02:47:58 67° ESE 02:54:28 10° NE
Meteor 1-20 Rocket 4.0 02:44:11 10° NNW 02:49:41 87° W 02:50:23 70° S
ADEOS II 2.0 02:45:09 10° N 02:50:20 74° WNW 02:50:20 74° WNW
SL-4 R/B 3.3 02:51:55 32° ENE 02:51:55 32° ENE 02:54:17 10° E
ATLAS 3B R/B 3.0 02:50:13 38° S 02:52:28 55° ESE 02:58:53 10° NE
Cosmos 841 Rocket 4.0 02:55:05 46° NW 02:55:05 46° NW 02:59:37 10° NNE
CZ-2D R/B 3.9 02:56:12 10° N 02:59:21 53° N 02:59:21 53° N
Unknown 4.5 03:00:53 42° SE 03:00:53 42° SE 03:04:29 10° ENE
Resurs 1-4 Rocket 3.6 02:57:02 10° N 03:00:11 22° NW 03:00:11 22° NW
Unknown 4.5 03:01:55 42° SE 03:01:55 42° SE 03:05:34 10° ENE
Cosmos 2278 Rocket 4.1 03:01:11 16° NW 03:01:47 16° NW 03:05:17 10° N
Spot 4 Rocket 3.9 02:58:39 10° N 03:03:47 67° WNW 03:04:04 65° W
Unknown 4.3 03:04:05 45° SE 03:04:05 45° SE 03:07:49 10° ENE
Meteor 1-28 Rocket 3.8 03:06:15 51° N 03:06:15 51° N 03:09:09 10° N
Unknown 4.3 03:05:34 45° SE 03:05:34 45° SE 03:09:23 10° ENE
Unknown 3.8 03:06:11 63° ENE 03:06:11 63° ENE 03:09:32 10° ENE
Unknown 4.3 03:06:14 46° SE 03:06:14 46° SE 03:10:05 10° ENE
H-2A R/B 4.5 03:05:11 10° NE 03:08:19 23° E 03:11:26 10° SSE
Unknown 4.2 03:08:40 46° SE 03:08:40 46° SE 03:12:37 10° ENE
Unknown 3.7 03:09:50 67° NE 03:09:50 67° NE 03:13:13 10° ENE
Cosmos 1602 3.8 03:05:48 10° N 03:09:45 76° E 03:09:52 75° E
Cosmos 1782 2.7 03:12:04 79° N 03:12:04 79° N 03:15:49 10° N
Unknown 4.0 03:11:57 51° SE 03:12:01 51° SE 03:16:03 10° ENE
IRIDIUM 104 4.4 03:13:04 53° W 03:13:10 53° W 03:18:18 10° N
Unknown 4.0 03:13:34 52° SSE 03:13:41 52° SE 03:17:43 10° ENE
Iridium 4 Rocket 4.0 03:10:49 14° SSE 03:14:36 49° E 03:18:45 10° NNE
USA 267 4.3 03:09:15 10° E 03:15:17 41° NNE 03:21:20 10° NW
Unknown 3.9 03:15:08 53° SSE 03:15:20 54° SE 03:19:23 10° ENE
Cosmos 2344 3.6 03:13:54 39° SW 03:17:01 75° NW 03:25:25 10° NE
Unknown 3.9 03:16:46 54° SSE 03:17:01 56° SE 03:21:05 10° ENE
FALCON 9 DEB 4.3 03:17:47 35° N 03:17:47 35° N 03:20:56 10° NE
Lacrosse 5 rocket 1.3 03:18:41 63° NW 03:19:21 87° SW 03:23:46 10° SE
Unknown 3.8 03:19:59 56° S 03:20:21 59° SE 03:24:26 10° ENE
Unknown 4.4 03:21:48 32° NNW 03:21:48 32° NNW 03:24:58 10° NE
Unknown 3.7 03:21:37 57° S 03:22:02 61° SE 03:26:07 10° ENE
Cosmos 1707 Rocket 3.5 03:21:48 49° S 03:22:59 89° W 03:27:26 10° N
Unknown 3.7 03:23:10 57° S 03:23:39 62° SE 03:27:46 10° ENE
Cosmos 1400 Rocket 3.3 03:22:09 30° SSE 03:23:48 55° E 03:27:37 10° NNE
Unknown 3.7 03:24:39 55° S 03:25:12 62° SE 03:29:19 10° ENE
Unknown 3.7 03:26:37 56° SSW 03:27:14 66° SE 03:31:22 10° ENE
Cosmos 1943 Rocket 2.1 03:26:23 43° WSW 03:28:03 64° WNW 03:33:35 10° NNE
Unknown 3.8 03:27:46 53° S 03:28:27 63° SE 03:32:33 10° ENE
Cosmos 1092 Rocket 3.9 03:24:25 19° S 03:28:58 89° W 03:35:10 10° N
Unknown 3.7 03:30:55 51° SSW 03:31:44 66° SE 03:35:51 10° ENE
Cosmos 1733 Rocket 3.4 03:28:34 10° N 03:33:02 69° E 03:37:28 10° SSE
CZ-2D R/B 4.0 03:30:40 10° NNW 03:33:05 13° NW 03:33:05 13° NW
Unknown 3.7 03:32:33 51° SSW 03:33:25 68° SE 03:37:32 10° ENE
PSLV R/B 3.9 03:29:38 10° NNE 03:34:01 66° ESE 03:37:16 17° S
CENTAUR R/B 2.5 03:31:56 32° SW 03:35:00 89° NW 03:42:06 10° NE
Cosmos 220 Rocket 3.8 03:33:47 44° SSW 03:35:05 82° WNW 03:39:24 10° NNE
Unknown 3.6 03:34:20 52° SW 03:35:15 75° SSE 03:39:25 10° ENE
Unknown 3.6 03:35:44 49° SSW 03:36:45 72° SE 03:40:53 10° ENE
Unknown 3.4 03:37:04 54° WSW 03:37:57 89° NNW 03:42:01 10° ENE
ADEOS 3.6 03:32:44 10° NNE 03:38:00 80° ESE 03:42:32 14° S
Unknown 3.6 03:37:20 48° SW 03:38:23 74° SSE 03:42:32 10° ENE
ATLAS 5 CENTAUR R/B 4.1 03:37:55 10° NW 03:40:23 14° NNW 03:42:59 10° NNE
BREEZE-M DEB (TANK) 3.2 03:39:49 38° WSW 03:41:08 54° SSW 03:51:36 10° SE
Unknown 3.5 03:40:36 47° SW 03:41:43 84° SE 03:45:49 10° ENE
Unknown 3.6 03:40:32 45° SW 03:41:43 78° SE 03:45:52 10° ENE
Unknown 3.6 03:42:05 44° SW 03:43:20 80° SSE 03:47:29 10° ENE
MSX 4.5 03:38:25 10° NNE 03:44:06 56° E 03:49:43 10° S
Unknown 4.0 03:43:43 36° WNW 03:44:39 44° NNW 03:48:16 10° NE
Unknown 3.6 03:43:43 42° SW 03:45:02 81° SE 03:49:12 10° ENE
Cosmos 1536 4.3 03:41:21 10° N 03:45:06 38° ENE 03:48:49 10° SE
Cosmos 2263 4.1 03:42:08 28° SW 03:45:08 73° WNW 03:50:46 10° NNE
PSLV R/B 3.8 03:41:51 10° S 03:45:59 74° WSW 03:50:08 10° NNW
Unknown 3.6 03:45:18 41° SW 03:46:42 83° SE 03:50:51 10° ENE
ARIANE 5 R/B 3.7 03:42:53 10° N 03:46:59 25° WNW 03:47:44 24° WNW
Spot 2 4.1 03:42:48 10° N 03:47:28 67° WNW 03:49:51 26° SSW
CZ-2C R/B 3.8 03:43:57 10° NNE 03:48:31 38° E 03:53:10 10° SSE
Unknown 3.5 03:48:31 38° SW 03:50:02 88° SE 03:54:12 10° ENE
Nadezhda 4 Rocket 4.4 03:47:53 27° SW 03:50:36 41° WNW 03:56:22 10° N
Meteor 1-5 Rocket 4.2 03:45:29 10° N 03:50:56 84° E 03:56:32 10° SSE
Cosmos 1627 Rocket 4.5 03:44:56 10° S 03:51:16 81° W 03:57:42 10° N
USA 238 DEB 4.4 03:48:00 24° W 03:51:34 39° NW 03:58:05 10° NNE
USA 238 4.4 03:48:05 24° W 03:51:39 40° NW 03:58:12 10° NNE
Unknown 3.5 03:50:25 37° WSW 03:51:59 83° NNW 03:56:09 10° ENE
Cosmos 1346 Rocket 3.8 03:48:07 10° N 03:52:08 49° ENE 03:56:06 10° SSE
CZ-2C R/B 3.8 03:49:32 10° N 03:52:58 27° WNW 03:53:09 27° WNW
Unknown 3.5 03:51:59 36° WSW 03:53:37 82° NNW 03:57:48 10° ENE
Unknown 3.5 03:52:15 36° WSW 03:53:54 86° NNW 03:58:03 10° ENE
SeaSat 1 2.4 03:51:12 10° NNE 03:56:11 89° ESE 04:00:10 16° SSW
Unknown 3.5 03:54:55 33° WSW 03:56:41 85° NNW 04:00:51 10° ENE
Lacrosse 5 2.8 03:51:57 10° NW 03:56:51 47° NNE 04:01:44 10° ESE
Unknown 3.6 03:58:07 31° WSW 04:00:01 81° NNW 04:04:11 10° ENE
Cosmos 1340 3.4 03:57:15 10° N 04:01:01 56° ENE 04:04:44 10° SSE
Unknown 3.6 03:59:42 30° WSW 04:01:40 80° NNW 04:05:50 10° ENE
Unknown 3.6 04:01:18 29° WSW 04:03:20 78° NNW 04:07:30 10° ENE
PAYLOAD A 4.2 03:59:49 10° NNE 04:04:36 65° ESE 04:09:15 10° S
Unknown 3.6 04:02:54 28° WSW 04:05:00 76° NNW 04:09:10 10° ENE
Cosmos 1461 3.8 04:07:32 25° WSW 04:07:35 25° WSW 04:11:00 10° S
Unknown 3.7 04:09:17 24° WSW 04:11:39 70° NNW 04:15:48 10° ENE
Cosmos 1553 Rocket 4.0 04:06:05 10° N 04:12:24 86° W 04:18:34 10° S
Unknown 3.7 04:10:52 23° WSW 04:13:18 68° NNW 04:17:26 10° ENE
Unknown 3.7 04:12:29 23° WSW 04:15:00 67° NNW 04:19:08 10° ENE
Unknown 3.7 04:14:03 22° WSW 04:16:37 66° NNW 04:20:45 10° ENE
Cosmos 2242 Rocket 3.6 04:12:15 10° S 04:16:48 84° W 04:21:20 10° N
COSMOS 2487 3.4 04:14:45 10° NW 04:17:41 25° WSW 04:20:35 10° SSW
Cosmos 1703 Rocket 4.4 04:13:59 10° S 04:18:19 55° E 04:22:38 10° NNE
Unknown 3.8 04:15:41 21° WSW 04:18:19 64° NNW 04:22:27 10° ENE
IDEFIX/ARIANE 42P 2.8 04:13:59 10° N 04:19:06 53° WNW 04:24:12 10° SW
CZ-4B R/B 4.2 04:16:18 10° NNE 04:19:58 60° E 04:23:35 10° S
ATLAS CENTAUR R/B 4.3 04:17:52 10° N 04:20:43 16° NNE 04:23:27 10° ENE
Unknown 3.8 04:18:52 20° WSW 04:21:39 62° NNW 04:25:46 10° ENE
Cosmos 2369 Rocket 3.1 04:18:32 17° WSW 04:22:01 31° NW 04:27:03 10° N
USA 215 3.5 04:16:22 10° NE 04:22:55 73° SE 04:29:27 10° SW
Atlas Centaur 2 4.3 04:18:42 12° SW 04:22:56 20° S 04:28:27 10° SE
Starlink (trailer) 3.8 04:20:25 19° WSW 04:23:17 60° NNW 04:27:23 10° ENE
Timation 2 Rocket 3.9 04:17:38 10° NW 04:23:36 62° WSW 04:29:28 10° SSE
COSMOS 2441 4.3 04:19:38 10° N 04:24:30 74° WNW 04:29:23 10° SSW
USA 102 2.7 04:19:18 10° NNE 04:24:35 49° NW 04:25:11 37° W
Cosmos 44 3.5 04:20:35 15° SW 04:24:37 57° NW 04:29:21 10° NNE
Unknown 3.9 04:22:05 18° W 04:25:00 59° NNW 04:29:07 10° NE
Cosmos 2297 Rocket 4.2 04:20:26 10° N 04:25:25 31° NE 04:30:23 10° ESE
Unknown 3.9 04:23:39 18° W 04:26:39 58° NNW 04:30:45 10° NE
Cosmos 1656 Rocket 3.9 04:22:12 11° SW 04:27:39 57° WNW 04:33:15 10° NNE
Meteor 1-27 Rocket 3.8 04:23:18 10° SSW 04:29:10 70° WNW 04:34:59 10° N
ADEOS II 4.0 04:27:06 10° NNW 04:29:13 12° NW 04:31:16 10° WNW
Cosmos 2026 Rocket 4.3 04:23:53 10° SSW 04:29:52 46° WNW 04:35:59 10° N
SL-4 R/B 1.8 04:27:33 13° WNW 04:30:35 55° SSW 04:34:10 10° SE
Cosmos 1862 Rocket 4.0 04:26:30 10° SSW 04:30:44 42° WNW 04:35:01 10° N
USA 81 4.3 04:25:50 10° SSW 04:30:54 47° W 04:36:01 10° N
SJ-6F 4.4 04:28:55 10° N 04:33:06 69° WNW 04:37:15 10° SSW
Unknown 4.0 04:30:02 15° W 04:33:18 54° NNW 04:37:23 10° NE
Cosmos 1500 3.5 04:30:12 10° NNW 04:33:44 40° W 04:37:16 10° SSW
Unknown 4.0 04:31:41 15° W 04:35:02 53° NNW 04:39:06 10° NE
Unknown 4.0 04:32:18 14° W 04:35:40 52° NNW 04:39:45 10° NE
Unknown 4.1 04:34:51 13° W 04:38:20 51° NNW 04:42:23 10° NE
NOSS 3-2 (C) 4.5 04:34:22 12° W 04:39:25 34° NNW 04:45:36 10° NNE
Cosmos 773 Rocket 4.0 04:34:54 10° SSW 04:40:03 67° WNW 04:45:13 10° NNE
Unknown 4.1 04:36:33 13° W 04:40:07 49° NNW 04:44:10 10° NE
Cosmos 1315 Rocket 3.1 04:36:44 10° SSW 04:40:45 49° WNW 04:44:48 10° N
Cosmos 1655 Rocket 4.0 04:34:43 10° SSW 04:40:55 72° W 04:47:13 10° N
Unknown 4.1 04:37:35 13° W 04:41:12 50° NNW 04:45:15 10° NE
Meteor 1-11 Rocket 4.0 04:36:03 10° NNW 04:41:19 42° W 04:46:30 10° SSW
ATLAS 3B R/B 3.3 04:37:30 11° WSW 04:43:23 40° NW 04:49:35 10° NNE
Unknown 4.2 04:39:45 12° W 04:43:27 48° NNW 04:47:29 10° NE
H-2A R/B 3.2 04:40:31 10° N 04:43:50 28° WNW 04:47:08 10° SW
Unknown 4.2 04:41:14 11° W 04:45:00 48° NNW 04:49:03 10° NE
Unknown 4.2 04:41:54 11° W 04:45:42 47° NNW 04:49:45 10° NE
Unknown 4.2 04:44:20 11° W 04:48:15 47° NNW 04:52:17 10° NE
Unknown 4.3 04:47:41 10° W 04:51:41 45° NNW 04:55:41 10° NE
Cosmos 2084 Rocket 3.7 04:47:30 10° NW 04:51:45 48° WSW 04:55:55 10° SSE
Okean 1-7 3.0 04:47:52 10° SSW 04:52:16 80° W 04:56:42 10° N
BREEZE-M DEB (TANK) 2.9 04:43:59 10° W 04:52:56 90° WNW 04:55:57 10° E
S3M 4.1 04:47:14 10° NNW 04:53:14 55° W 04:59:17 10° SSW
Unknown 4.3 04:49:23 10° W 04:53:21 44° NNW 04:57:21 10° NE
COSMO-SKYMED 1 2.8 04:49:19 10° SSE 04:53:39 80° ENE 04:58:01 10° N
Okean 2 Rocket 4.2 04:49:30 10° N 04:53:58 52° ENE 04:58:21 10° SSE
Cosmos 1812 3.7 04:50:40 10° SW 04:54:01 28° WNW 04:57:22 10° NNW
Unknown 4.3 04:51:02 10° W 04:55:01 44° NNW 04:59:01 10° NE
Cosmos 1743 3.4 04:51:57 10° N 04:55:51 62° E 04:59:42 10° SSE
Unknown 4.3 04:52:45 10° W 04:56:43 43° NNW 05:00:42 10° NE
USA 267 3.4 04:51:19 10° ESE 04:57:52 83° NE 05:04:27 10° NW
Lacrosse 5 rocket 3.2 04:55:36 10° W 04:58:03 15° WSW 05:00:33 10° SSW
Helios 1A Rocket 3.5 04:55:10 10° NNE 04:59:13 62° ESE 05:03:15 10° S
Cosmos 1908 Rocket 4.1 04:55:47 10° NNW 04:59:46 36° W 05:03:44 10° SSW
Unknown 4.4 04:56:08 10° W 05:00:05 42° NNW 05:04:03 10° NE
Meteor 2-13 Rocket 4.5 04:56:29 10° SSW 05:02:36 71° W 05:08:47 10° N
